Waarnemingen

Advertentie
Mijn weer
Asturias/Aviles, Spanje (8011): temperatuur & dauwpunt: 19.09.2018 11:00:00 - 25.09.2018 11:00:00 (CEST)Asturias/Aviles, Spanje (8011): windsnelheid: 19.09.2018 11:00:00 - 25.09.2018 11:00:00 (CEST)Asturias/Aviles, Spanje (8011): windrichting: 19.09.2018 11:00:00 - 25.09.2018 11:00:00 (CEST)Asturias/Aviles, Spanje (8011): luchtdruk: 19.09.2018 11:00:00 - 25.09.2018 11:00:00 (CEST)Asturias/Aviles, Spanje (8011): zicht: 19.09.2018 11:00:00 - 25.09.2018 11:00:00 (CEST)
Datum & Tijd tt [°C] td [°C] ff [km/u] ff [kn] dd ppp [hPa] vv [km]
25.09.2018 11:00:00 16,9 10,4 18 10 OZO 1028,5 30
25.09.2018 10:00:00 15,4 10,2 16 9 OZO 1028,3 -
25.09.2018 09:00:00 10,8 8,7 11 6 ZO 1028,3 -
25.09.2018 08:00:00 9,4 7,2 11 6 ZO 1028,3 20
25.09.2018 07:00:00 10,5 7,6 13 7 ZO 1028,2 -
25.09.2018 06:00:00 11,2 7,9 15 8 ZO 1028,5 -
25.09.2018 05:00:00 11,3 8,0 15 8 ZO 1029,0 -
25.09.2018 04:00:00 11,2 8,4 15 8 ZO 1029,5 -
25.09.2018 03:00:00 10,5 8,3 15 8 ZO 1029,8 -
25.09.2018 02:00:00 11,2 8,8 16 9 ZO 1030,1 30
25.09.2018 01:00:00 11,8 9,5 16 9 ZO 1030,6 -
25.09.2018 00:00:00 12,9 10,0 18 10 OZO 1030,8 -
24.09.2018 23:00:00 13,8 10,6 16 9 OZO 1030,7 30
24.09.2018 22:00:00 14,7 10,9 18 10 OZO 1030,3 -
24.09.2018 21:00:00 14,7 10,7 18 10 OZO 1030,1 -
24.09.2018 20:00:00 15,4 11,0 24 13 O 1030,0 25
24.09.2018 19:00:00 15,8 11,6 26 14 OZO 1029,9 -
24.09.2018 18:00:00 16,3 11,8 18 10 O 1029,9 -
24.09.2018 17:00:00 16,7 12,0 22 12 O 1030,2 20
24.09.2018 16:00:00 16,9 11,8 26 14 O 1030,2 -
24.09.2018 15:00:00 17,6 12,3 24 13 O 1030,6 -
24.09.2018 14:00:00 17,8 12,3 24 13 O 1031,0 10
24.09.2018 13:00:00 17,1 13,7 28 15 OZO 1031,5 -
24.09.2018 12:00:00 16,6 13,3 22 12 OZO 1031,8 -
24.09.2018 11:00:00 15,9 12,1 21 11 O 1031,7 -
24.09.2018 10:00:00 15,7 11,5 21 11 O 1031,4 -
24.09.2018 09:00:00 15,3 12,1 22 12 O 1030,8 -
24.09.2018 08:00:00 15,1 12,6 18 10 O 1030,3 7
24.09.2018 07:00:00 15,4 13,1 18 10 O 1029,9 -
24.09.2018 06:00:00 15,9 13,6 16 9 O 1029,8 -
24.09.2018 05:00:00 16,5 14,1 9 5 O 1029,5 -
24.09.2018 04:00:00 16,6 14,2 9 5 O 1029,7 -
24.09.2018 03:00:00 16,5 14,1 13 7 O 1029,7 -
24.09.2018 02:00:00 16,7 14,4 13 7 O 1029,7 1,2
24.09.2018 01:00:00 17,6 15,4 11 6 O 1029,4 -
24.09.2018 00:00:00 17,9 15,9 8 4 NO 1028,9 -
23.09.2018 23:00:00 18,5 16,7 8 4 NNO 1028,6 2,5
23.09.2018 22:00:00 19,3 17,8 5 3 WNW 1028,1 -
23.09.2018 21:00:00 19,3 18,3 11 6 W 1027,8 -
23.09.2018 20:00:00 19,7 18,5 13 7 W 1027,2 9
23.09.2018 19:00:00 19,7 18,2 11 6 W 1026,7 -
23.09.2018 18:00:00 20,0 18,3 9 5 W 1026,4 -
23.09.2018 17:00:00 20,5 18,4 13 7 W 1026,0 9
23.09.2018 16:00:00 19,7 17,3 15 8 WNW 1026,3 -
23.09.2018 15:00:00 20,8 15,7 15 8 NW 1025,9 -
23.09.2018 14:00:00 19,3 14,8 11 6 NW 1026,1 8
23.09.2018 13:00:00 19,2 15,5 13 7 WNW 1025,7 -
23.09.2018 12:00:00 18,2 17,0 8 4 WNW 1025,4 -
23.09.2018 11:00:00 18,3 17,4 13 7 WNW 1025,1 3,0
23.09.2018 10:00:00 17,8 17,0 8 4 WZW 1024,6 -
23.09.2018 09:00:00 17,2 16,6 8 4 ZW 1024,2 -
23.09.2018 08:00:00 17,0 16,4 9 5 WZW 1023,9 1,0
23.09.2018 07:00:00 17,1 16,5 8 4 ZW 1023,7 -
23.09.2018 06:00:00 17,2 16,7 9 5 ZW 1023,7 -
23.09.2018 05:00:00 17,3 16,8 11 6 ZW 1023,9 -
23.09.2018 04:00:00 17,4 16,9 11 6 ZZW 1024,3 -
23.09.2018 03:00:00 17,4 16,9 11 6 ZZW 1024,7 -
23.09.2018 02:00:00 17,5 17,0 11 6 ZZW 1025,0 2,0
23.09.2018 01:00:00 17,6 17,0 9 5 ZZW 1025,1 -
23.09.2018 00:00:00 17,4 16,8 5 3 ZW 1025,3 -
22.09.2018 23:00:00 17,2 16,6 0 0 N 1025,3 12
22.09.2018 22:00:00 17,7 16,9 0 0 N 1025,1 -
22.09.2018 21:00:00 18,9 17,7 0 0 N 1024,5 -
22.09.2018 20:00:00 20,4 18,0 5 3 W 1024,0 15
22.09.2018 19:00:00 21,9 18,7 5 3 NW 1023,6 -
22.09.2018 18:00:00 22,3 18,7 8 4 NW 1023,5 -
22.09.2018 17:00:00 22,5 18,6 8 4 WNW 1023,7 -
22.09.2018 16:00:00 22,5 17,7 9 5 NW 1023,8 -
22.09.2018 15:00:00 23,0 17,6 8 4 NW 1023,7 -
22.09.2018 14:00:00 22,6 17,0 9 5 WNW 1023,9 20
22.09.2018 13:00:00 23,0 17,3 9 5 NW 1023,8 -
22.09.2018 12:00:00 24,1 17,8 9 5 WZW 1023,2 -
22.09.2018 11:00:00 21,4 17,5 11 6 ZW 1023,1 10
22.09.2018 10:00:00 18,9 16,6 13 7 ZW 1022,7 -
22.09.2018 09:00:00 17,0 15,9 15 8 ZZW 1022,6 -
22.09.2018 08:00:00 16,3 15,5 15 8 ZZW 1022,3 10
22.09.2018 07:00:00 16,2 15,3 8 4 ZW 1022,1 -
22.09.2018 06:00:00 16,6 15,8 13 7 ZZW 1021,9 -
22.09.2018 05:00:00 16,3 15,5 11 6 Z 1022,1 -
22.09.2018 04:00:00 16,4 15,6 9 5 Z 1022,7 -
22.09.2018 03:00:00 17,0 16,0 8 4 ZZO 1023,4 -
22.09.2018 02:00:00 16,9 16,1 9 5 Z 1023,6 12
22.09.2018 01:00:00 16,8 15,7 5 3 Z 1023,8 -
22.09.2018 00:00:00 17,2 16,1 8 4 ZZO 1023,8 -
21.09.2018 23:00:00 17,2 15,5 8 4 ZZO 1023,9 10
21.09.2018 22:00:00 16,9 15,4 9 5 OZO 1024,2 -
21.09.2018 21:00:00 16,9 15,4 5 3 O 1023,9 -
21.09.2018 20:00:00 17,4 15,5 4 2 O 1023,6 7
21.09.2018 19:00:00 17,7 15,5 8 4 O 1023,5 -
21.09.2018 18:00:00 17,6 16,1 5 3 O 1023,5 -
21.09.2018 17:00:00 17,8 16,5 0 0 N 1023,3 6
21.09.2018 16:00:00 17,7 17,1 4 2 ONO 1022,9 -
21.09.2018 15:00:00 17,6 16,8 4 2 N 1022,9 -
21.09.2018 14:00:00 17,9 16,9 4 2 N 1022,7 5
21.09.2018 13:00:00 17,6 16,7 8 4 NNW 1022,6 -
21.09.2018 12:00:00 18,0 17,0 11 6 WNW 1022,3 -
21.09.2018 11:00:00 18,0 17,0 15 8 WNW 1021,4 10
21.09.2018 10:00:00 19,7 14,6 8 4 WNW 1020,2 -
21.09.2018 09:00:00 19,6 13,1 13 7 ZZW 1019,3 -
21.09.2018 08:00:00 18,3 12,5 8 4 WZW 1018,8 30
21.09.2018 07:00:00 18,3 12,5 8 4 ZZW 1018,2 -
21.09.2018 06:00:00 19,0 12,5 13 7 WZW 1017,7 -
21.09.2018 05:00:00 18,4 12,4 13 7 ZW 1017,5 -
21.09.2018 04:00:00 17,8 12,9 15 8 ZZW 1017,6 -
21.09.2018 03:00:00 17,1 14,2 11 6 ZZW 1017,6 -
21.09.2018 02:00:00 16,6 15,0 11 6 ZW 1017,8 20
21.09.2018 01:00:00 16,6 15,3 11 6 ZW 1018,3 -
21.09.2018 00:00:00 17,4 15,7 8 4 ZW 1018,5 -
20.09.2018 23:00:00 17,1 15,8 11 6 ZZW 1018,3 15
20.09.2018 22:00:00 17,3 15,8 11 6 Z 1018,5 -
20.09.2018 21:00:00 16,8 15,7 8 4 Z 1018,7 -
20.09.2018 20:00:00 17,5 16,5 9 5 W 1018,8 15
20.09.2018 19:00:00 18,4 15,6 11 6 NW 1018,3 -
20.09.2018 18:00:00 20,2 15,5 5 3 NW 1017,6 -
20.09.2018 17:00:00 21,2 16,1 4 2 WNW 1017,8 -
20.09.2018 16:00:00 20,9 15,4 8 4 N 1018,5 -
20.09.2018 15:00:00 21,5 15,8 8 4 N 1018,7 -
20.09.2018 14:00:00 20,4 16,0 8 4 WNW 1019,4 20
20.09.2018 13:00:00 20,2 15,1 9 5 NW 1019,7 -
20.09.2018 12:00:00 21,4 15,8 8 4 NW 1019,7 -
20.09.2018 11:00:00 20,0 16,0 11 6 ZZW 1019,9 20
20.09.2018 10:00:00 17,2 14,8 13 7 ZW 1020,2 -
20.09.2018 09:00:00 15,2 14,0 15 8 ZW 1020,3 -
20.09.2018 08:00:00 14,4 13,4 16 9 ZZW 1020,2 15
20.09.2018 07:00:00 14,5 13,4 13 7 ZZW 1020,4 -
20.09.2018 06:00:00 14,5 13,4 9 5 ZZW 1020,5 -
20.09.2018 05:00:00 14,8 13,7 11 6 ZZW 1020,8 -
20.09.2018 04:00:00 15,0 13,8 9 5 ZW 1021,4 -
20.09.2018 03:00:00 15,0 13,7 9 5 ZW 1021,8 -
20.09.2018 02:00:00 15,1 13,8 9 5 ZZW 1022,2 20
20.09.2018 01:00:00 15,3 13,8 9 5 ZZW 1022,6 -
20.09.2018 00:00:00 15,4 13,6 5 3 ZZW 1023,2 -
19.09.2018 23:00:00 15,8 14,0 0 0 N 1023,3 20
19.09.2018 22:00:00 16,4 13,9 0 0 N 1022,9 -
19.09.2018 21:00:00 18,3 14,0 5 3 O 1022,1 -
19.09.2018 20:00:00 19,8 14,2 4 2 O 1021,8 20
19.09.2018 19:00:00 21,8 14,5 5 3 O 1021,7 -
19.09.2018 18:00:00 23,0 15,1 4 2 NNO 1021,5 -
19.09.2018 17:00:00 22,5 14,9 8 4 N 1021,7 20
19.09.2018 16:00:00 23,0 14,6 5 3 N 1021,8 -
19.09.2018 15:00:00 22,6 15,4 8 4 N 1022,2 -
19.09.2018 14:00:00 22,2 15,9 8 4 N 1022,2 20
19.09.2018 13:00:00 22,1 16,7 5 3 N 1022,3 -
19.09.2018 12:00:00 21,6 17,0 8 4 NW 1022,1 -
19.09.2018 11:00:00 21,0 17,2 4 2 NW 1021,8 20

tt = temperatuur
td = dauwpunt
ff = windsnelheid
dd = windrichting
ppp = luchtdruk
vv = zicht

Weerstations in de omgeving